Location: ?npgh?r?
(27.6322°N, 85.6565°E)
Time: 09:09:36
(UTC+00:00)

Daily predictions for brighter satellites

Satellite Brightness Start Highest point End
(mag) Time Altitude Azimuth Time Altitude Azimuth Time Altitude Azimuth
CZ-3B Rocket 3.6 13:07:46 10° WSW 13:12:06 43° S 13:28:17 10° ESE
MOS 1 Rocket 3.8 13:31:23 10° NE 13:35:12 31° E 13:39:00 10° SSE
Cosmos 1461 4.2 13:32:25 10° SSE 13:35:15 19° ESE 13:38:11 10° ENE
Cosmos 1743 3.9 13:32:27 10° NNE 13:35:38 25° E 13:38:48 10° SE
Cosmos 2034 Rocket 4.4 13:31:32 10° N 13:37:23 44° E 13:43:11 10° SSE
Cosmos 1513 Rocket 4.5 13:31:55 10° N 13:38:01 69° E 13:44:11 10° SSE
STARLINK-1169 3.7 13:34:07 10° NW 13:38:15 74° NE 13:42:22 10° SE
Cosmos 1703 Rocket 3.6 13:34:13 10° S 13:38:26 55° E 13:42:39 10° NNE
GPS 2-12 Rocket1 4.1 13:34:46 10° SW 13:38:33 28° S 13:42:20 10° ESE
Cosmos 2278 Rocket 2.2 13:33:16 10° S 13:38:51 64° ESE 13:44:28 10° NNE
Cosmos 1624 Rocket 4.1 13:34:51 10° SSW 13:40:09 87° WNW 13:45:30 10° NNE
SJ-6B 4.0 13:38:37 10° SE 13:41:37 23° ENE 13:44:37 10° NNE
Cosmos 44 Rocket 3.4 13:38:17 10° NNW 13:43:14 85° WSW 13:48:17 10° SSE
STARLINK-1178 3.6 13:39:06 10° NW 13:43:15 84° NE 13:47:22 10° SE
Cosmos 1536 3.4 13:39:19 10° NNW 13:43:20 62° W 13:47:19 10° S
BREEZE M DEB (TANK) 3.5 13:42:23 10° NNW 13:44:47 23° NE 13:46:39 10° E
FREGAT/IRIS 3.4 13:42:49 10° SE 13:45:08 27° ENE 13:47:27 10° NNE
STARLINK-1120 3.6 13:44:03 10° NW 13:48:11 86° SW 13:52:12 11° SE
Cosmos 2346 Rocket 4.5 13:44:01 10° S 13:50:05 89° E 13:56:14 10° N
ASTRO E2 2.8 13:47:12 10° W 13:51:09 74° NNW 13:55:07 10° ENE
STARLINK-1131 3.7 13:49:02 10° NW 13:53:09 76° SW 13:56:59 12° SE
Cosmos 1666 4.3 13:51:31 10° NNW 13:55:04 36° W 13:58:34 10° SSW
Cosmos 1464 Rocket 4.2 13:49:23 10° N 13:55:48 84° W 14:02:09 10° S
ATLAS 3B CENTAUR R/B 4.3 13:36:01 10° WSW 13:57:38 73° SSE 14:07:02 10° E
STARLINK-1190 3.9 13:54:03 10° NW 13:58:09 66° SW 14:01:48 13° SSE
Ariane Rocket 3.0 13:53:35 10° SSE 13:58:37 73° ENE 14:03:40 10° N
Cosmos 1908 Rocket 3.6 13:55:22 10° N 13:59:48 67° E 14:04:14 10° SSE
Resurs 01 Rocket 3.6 13:57:59 11° E 13:59:54 14° ENE 14:02:15 10° NE
STARLINK-1129 4.0 13:59:01 10° NW 14:03:04 58° SW 14:06:33 14° SSE
NOSS 8 (E) 4.4 13:59:02 10° SSW 14:03:09 75° ESE 14:06:24 10° NNE
Cosmos 371 Rocket 3.5 13:59:39 10° S 14:04:15 47° ESE 14:08:54 10° NNE
SEDSat Delta rocket 4.1 13:58:02 10° WNW 14:04:46 83° SSW 14:10:19 16° ESE
NOSS 2-2 (D) 4.5 14:02:44 13° SSE 14:04:48 19° ESE 14:07:23 10° ENE
Cosmos 1515 3.6 14:02:36 10° S 14:06:24 80° E 14:10:12 10° N
H-2A R/B 2.2 14:01:43 10° S 14:06:41 74° WSW 14:11:48 10° NNW
STARLINK-1134 4.2 14:04:02 10° NW 14:08:02 50° SW 14:11:20 14° SSE
MOS 1 4.3 14:04:40 10° SSE 14:10:20 73° ENE 14:16:01 10° N
Cosmos 909 Rocket 4.5 14:03:44 10° NNW 14:10:39 50° ENE 14:15:11 18° SE
CREW DRAGON DEMO-1 DEB 2.8 14:08:35 10° NW 14:11:40 83° SW 14:13:18 25° SE
Aureole 1 Rocket 4.1 14:07:43 10° N 14:12:50 53° ENE 14:18:04 16° SSE
STARLINK-1135 4.5 14:09:04 10° NW 14:13:01 44° SW 14:16:08 15° SSE
SL-08 RB Rocket 3.7 14:11:56 12° SSE 14:16:14 77° ENE 14:20:48 10° N
SL-4 R/B 3.3 14:14:19 10° S 14:17:58 24° SE 14:21:46 10° ENE
Okean 1-7 4.0 14:14:28 10° SSW 14:18:35 48° W 14:22:41 10° N
Cosmos 724 4.4 14:13:06 10° NNW 14:19:00 68° ENE 14:23:13 20° SE
NOSS 2-2 (E) 3.3 14:18:33 10° S 14:22:06 43° ESE 14:25:30 10° NE
Resurs 1-3 4.1 14:22:36 25° SE 14:24:42 43° ENE 14:28:51 10° N
Centaur D-1A AC-32 3.8 14:00:32 10° W 14:25:16 65° SSW 14:28:33 24° SE
BREEZE-M DEB (TANK) 4.0 14:24:38 10° NNW 14:26:36 23° NE 14:27:06 22° ENE
CZ-2C R/B 4.0 14:23:46 10° N 14:28:15 69° WNW 14:32:49 10° SSW
Delta 198 4.2 14:24:36 10° W 14:29:17 41° SSW 14:30:53 29° SSE
STARLINK-1074 4.5 14:26:26 10° NNW 14:30:18 38° NE 14:31:50 27° E
SWIFT 3.7 14:29:35 10° SW 14:32:34 22° S 14:32:34 22° S
Meteor 2-4 Rocket 3.6 14:30:27 10° S 14:35:50 86° W 14:41:12 10° N
ARGOS 4.0 14:30:51 10° S 14:35:58 48° W 14:41:10 10° NNW
Cosmos 304 Rocket 4.0 14:34:11 26° SSE 14:36:22 44° ESE 14:40:54 10° NNE
STARLINK-1088 4.1 14:36:16 10° NNW 14:40:17 48° NE 14:41:24 37° E
COSMOS 2406 3.2 14:34:57 10° NNW 14:40:42 77° ENE 14:43:41 30° SSE
Cosmos 1300 Rocket 4.4 14:37:04 10° NNE 14:40:59 30° E 14:41:18 30° E
Cosmos 1437 Rocket 3.1 14:42:54 40° E 14:42:54 40° E 14:46:18 10° NNE
Cosmos 2297 3.7 14:37:23 10° S 14:42:55 60° ESE 14:48:30 10° NNE
Lacrosse 5 3.5 14:39:46 10° N 14:43:35 21° NE 14:45:19 18° ENE
CZ-2C R/B 3.4 14:38:24 10° N 14:43:53 56° WNW 14:49:18 10° SSW
Sakura Rocket 4.3 14:38:01 10° W 14:44:17 84° N 14:51:43 15° E
Cosmos 1943 Rocket 3.5 14:46:06 20° E 14:46:06 20° E 14:48:55 10° NE
STARLINK-1115 3.9 14:41:11 10° NNW 14:45:15 54° NE 14:46:10 43° E
NOSS 2-2 (C) 2.9 14:42:52 10° SSW 14:46:37 73° ESE 14:50:09 10° NNE
ATLAS 2AS CENTAUR R/B 4.5 14:51:16 16° E 14:51:16 16° E 14:54:02 10° ENE
H-2A ROCKET BODY 3.1 14:45:52 10° SW 14:49:53 43° SE 15:04:44 10° ENE
STARLINK-1076 3.7 14:46:07 10° NNW 14:50:13 62° NE 14:50:57 51° E
Cosmos 1674 Rocket 3.9 14:50:59 42° E 14:50:59 42° E 14:55:05 10° NNE
Aureole 2 Rocket 2.9 14:52:02 43° NNE 14:52:02 43° NNE 14:54:15 10° NNE
Cosmos 1833 Rocket 2.8 14:47:44 10° N 14:53:16 58° ENE 14:55:00 41° SE
Cosmos 1452 Rocket 4.4 14:49:26 10° SSW 14:54:32 50° WNW 14:59:40 10° N
STARLINK-1092 3.5 14:51:05 10° NW 14:55:13 70° NE 14:55:45 61° E
Cosmos 2082 Rocket 2.9 14:54:10 10° N 14:59:27 37° ENE 15:00:26 35° E
Cosmos 2369 Rocket 3.9 15:02:14 16° ENE 15:02:14 16° ENE 15:03:58 10° NE
Cosmos 332 Rocket 4.4 14:55:05 10° SSW 14:59:53 56° WNW 15:04:42 10° N
STARLINK-1080 3.4 14:56:02 10° NW 15:00:11 80° NE 15:00:31 72° ESE
Cosmos 1975 3.9 14:56:25 10° NNW 15:00:12 41° W 15:02:05 24° SSW
STARLINK-1090 3.4 15:01:00 10° NW 15:05:09 90° WSW 15:05:18 83° SE
ISS -1.2 15:03:50 10° N 15:05:18 13° NNE 15:05:18 13° NNE
Meteor 1-13 Rocket 4.4 15:03:45 16° SSW 15:08:09 68° W 15:13:48 10° N
Hubble Space Telescope 2.2 15:05:42 10° W 15:08:31 26° SW 15:08:31 26° SW
STARLINK-1089 3.5 15:06:00 10° NW 15:10:06 79° WSW 15:10:06 79° WSW
STARLINK-1107 3.7 15:10:59 10° NW 15:14:52 68° WSW 15:14:52 68° WSW
Nadezhda 4 Rocket 4.0 15:14:54 51° ESE 15:15:47 56° E 15:21:45 10° NNE
Cosmos 2142 Rocket 4.4 15:10:00 10° N 15:16:10 86° W 15:18:25 42° S
Cosmos 1066 Rocket 4.0 15:16:52 63° SE 15:17:29 70° E 15:22:48 10° NNE
ERS-1 Rocket 4.4 15:19:42 24° ENE 15:19:42 24° ENE 15:23:02 10° NNE
STARLINK-1066 4.0 15:15:58 10° NW 15:19:38 57° W 15:19:38 57° W
STARLINK-1081 4.3 15:21:00 10° NW 15:24:27 48° W 15:24:27 48° W
MetOp-B 3.9 15:27:58 75° SSE 15:28:27 88° ENE 15:33:49 10° NNW
ASTRO E2 3.8 15:27:59 10° WNW 15:31:11 42° NNW 15:31:11 42° NNW
Cosmos 2279 Rocket 4.1 15:28:37 10° N 15:34:48 72° W 15:36:23 51° SSW
Resurs 01 Rocket 2.8 15:35:33 35° WSW 15:36:01 36° W 15:40:07 10° NNW
Cosmos 1741 Rocket 4.1 15:34:03 10° N 15:38:44 66° NNE 15:38:44 66° NNE
SPOT 1/Viking Rocket 3.8 15:43:24 59° NNE 15:43:24 59° NNE 15:47:48 10° N
Spot 2 Rocket 3.5 15:43:29 75° NW 15:43:29 75° NW 15:48:10 10° NNW
Terra 3.6 15:47:43 21° NE 15:47:43 21° NE 15:49:56 10° NNE
Okean 1 Rocket 4.4 15:43:40 10° N 15:46:18 34° NNE 15:46:18 34° NNE
Cosmos 1850 Rocket 4.1 15:43:38 10° NNW 15:48:28 73° NNW 15:48:28 73° NNW
Milstar 3 Cent rocket 3.9 15:46:59 10° WSW 15:55:25 71° SSE 16:14:38 10° ENE
SL-4 R/B 3.7 15:53:09 10° WSW 15:57:28 38° NW 16:01:58 10° NNE
Cosmos 1092 Rocket 4.0 16:01:40 73° NNE 16:01:40 73° NNE 16:07:11 10° N
ATLAS 3B CENTAUR R/B 2.8 16:09:19 10° W 16:22:28 87° N 16:22:32 86° NNE
VEP-3 4.3 16:18:04 10° WSW 16:33:34 - E 16:19:47 20° WSW
Lacrosse 5 3.6 16:21:53 10° NW 16:24:31 28° WNW 16:24:31 28° WNW
Cosmos 1943 Rocket 3.5 16:27:32 32° W 16:28:08 33° WNW 16:33:08 10° N
ATLAS 2AS CENTAUR R/B 3.1 16:38:35 69° W 16:39:10 72° WNW 16:47:11 10° NNE
Cosmos 2082 Rocket 4.2 16:39:03 10° NW 16:42:18 20° W 16:42:18 20° W
Cosmos 2369 Rocket 3.5 16:43:57 35° NW 16:43:57 35° NW 16:48:38 10° N
BREEZE-M DEB (TANK) 3.9 16:31:22 10° SW 16:45:18 61° NW 16:45:18 61° NW
NOSS 3-2 (A) 4.3 16:45:36 10° NNW 16:53:03 62° NE 16:53:03 62° NE
USA 238 DEB 4.3 16:57:41 10° NNW 17:03:34 58° N 17:03:34 58° N
USA 238 4.3 16:57:47 10° NNW 17:03:41 58° N 17:03:41 58° N
CENTAUR R/B 3.5 17:50:05 10° NNW 17:56:50 62° NNW 17:56:50 62° NNW
ATLAS 3B R/B 3.9 17:54:39 10° NNW 17:59:31 37° NNE 17:59:31 37° NNE
FALCON 9 R/B 3.5 18:52:28 50° NNE 18:52:28 50° NNE 19:06:37 10° E
CZ-4C R/B 4.2 19:06:01 22° NNE 19:06:01 22° NNE 19:07:56 10° NNE
USA 215 4.1 19:18:21 42° NNW 19:18:21 42° NNW 19:22:31 10° NW
Cosmos 1980 Rocket 3.9 19:21:55 27° NE 19:21:55 27° NE 19:24:36 10° NNE
Resurs 1-4 Rocket 3.9 19:21:23 10° NNE 19:23:55 27° NE 19:23:55 27° NE
SJ 16-02 4.2 19:32:40 10° N 19:33:17 14° N 19:33:17 14° N
CZ-2D R/B 3.7 19:34:30 10° NNE 19:37:13 31° NNE 19:37:13 31° NNE
Cosmos 2297 Rocket 3.8 19:40:56 10° NNW 19:43:29 28° NNW 19:43:29 28° NNW
SL-16 R/B 3.2 19:49:08 50° ENE 19:49:08 50° ENE 19:54:34 10° N
Cosmos 2322 Rocket 4.2 19:55:06 19° E 19:55:06 19° E 19:58:28 10° ENE
Cosmos 2181 Rocket 4.4 19:50:59 10° N 19:56:33 60° NE 19:56:33 60° NE
Lacrosse 4 Rocket 4.0 19:57:45 10° N 19:59:12 18° NNE 19:59:12 18° NNE
Cosmos 1697 Rocket 4.4 20:09:21 24° NW 20:09:21 24° NW 20:12:26 10° N
Cosmos 2227 Rocket 4.0 20:17:57 10° NNW 20:19:57 22° NW 20:19:57 22° NW
Cosmos 1241 Rocket 4.5 20:26:26 73° ENE 20:26:26 73° ENE 20:32:13 10° NNE
SL-16 R/B 2.8 20:26:24 49° E 20:26:24 49° E 20:31:31 10° NNE
Cosmos 2285 Rocket 4.0 20:24:42 10° NNW 20:30:25 73° NW 20:30:25 73° NW
IRS-1C 4.3 20:31:23 10° NNE 20:36:22 66° ENE 20:36:22 66° ENE
ADEOS II 2.2 20:40:32 10° N 20:45:13 69° NNW 20:45:13 69° NNW
Meteor 2-17 Rocket 4.4 20:52:04 66° W 20:52:09 67° W 20:58:15 10° N
Cosmos 2360 Rocket 3.4 20:53:59 29° SE 20:55:40 35° ESE 21:00:43 10° NE
IDEFIX/ARIANE 42P 3.7 20:54:05 10° NNE 20:58:56 37° E 21:00:53 28° SE
ATLAS CENTAUR R/B 3.2 20:55:36 10° NW 21:00:13 73° SW 21:12:53 10° SSE
Cosmos 2341 Rocket 4.4 20:58:32 36° SSE 21:01:05 63° E 21:07:21 10° NNE
Cosmos 1980 Rocket 4.0 21:03:41 17° WNW 21:03:41 17° WNW 21:06:58 10° NNW
Cosmos 1825 3.9 21:04:37 25° ESE 21:05:15 26° E 21:08:24 10° NNE
STARLINK-1302 4.4 21:06:18 46° N 21:06:18 46° N 21:09:40 10° NNE
H-2A R/B 4.1 21:02:08 10° SE 21:05:43 26° ENE 21:09:22 10° NNE
Resurs 1-4 Rocket 4.1 21:02:48 10° NNW 21:05:00 15° WNW 21:05:00 15° WNW
Cosmos 1295 Rocket 4.4 21:05:51 57° SSW 21:07:15 79° W 21:13:35 10° N
IRIDIUM 106 4.1 21:07:51 74° SW 21:08:15 80° W 21:13:29 10° N
GEOS 3 Rocket 3.9 21:10:52 49° WNW 21:10:52 49° WNW 21:15:00 10° NW
STARLINK-1273 4.4 21:11:04 44° NNW 21:11:04 44° NNW 21:14:34 10° NNE
STARLINK-1143 4.5 21:11:02 10° NNW 21:15:02 49° NE 21:19:03 10° ESE
STARLINK-1288 4.4 21:15:52 41° NW 21:15:52 41° NW 21:19:31 10° NNE
COBE Rocket 4.1 21:16:21 30° SSE 21:18:45 71° ENE 21:23:48 10° N
CZ-2D R/B 4.3 21:17:46 10° NW 21:18:32 11° WNW 21:18:32 11° WNW
STARLINK-71 4.3 21:19:16 42° SE 21:19:17 42° SE 21:23:05 10° NE
STARLINK-1241 4.2 21:16:00 10° NNW 21:20:04 55° NE 21:24:07 10° SE
Cosmos 2058 3.5 21:22:52 44° NW 21:22:52 44° NW 21:26:18 10° N
Cosmos 1869 3.5 21:20:14 10° NNW 21:23:23 54° NW 21:23:23 54° NW
Skynet4D Del rocket 3.6 21:22:41 41° W 21:24:54 78° S 21:30:29 10° ESE
SL-16 Debris 4.2 21:25:56 35° E 21:25:56 35° E 21:28:24 10° E
STARLINK-1239 4.0 21:20:56 10° NW 21:25:02 63° NE 21:29:07 10° SE
Delta 2 Rocket 4.3 21:25:13 39° S 21:26:21 43° SSE 21:32:02 10° E
Cosmos 1076 Rocket 3.9 21:26:54 46° WNW 21:26:54 46° WNW 21:30:49 10° N
STARLINK-1240 3.8 21:25:52 10° NW 21:30:00 72° NE 21:34:06 10° SE
CZ-2D R/B 3.5 21:26:03 10° N 21:30:15 63° WNW 21:30:39 59° WSW
SL-16 R/B 4.2 21:34:13 16° WNW 21:34:13 16° WNW 21:36:21 10° NW
CZ-2C R/B 2.7 21:28:50 10° NNE 21:32:35 81° E 21:33:11 61° S
STARLINK-1023 4.5 21:32:04 35° SSE 21:32:53 40° SE 21:36:45 10° ENE
Cosmos 2218 Rocket 4.2 21:28:53 19° S 21:33:28 70° E 21:39:49 10° N
STARLINK-1203 3.6 21:30:42 10° NW 21:34:55 82° NE 21:39:06 10° SE
STARLINK-1216 3.6 21:30:49 10° NW 21:34:58 82° NE 21:39:05 10° SE
Cosmos 2263 Rocket 2.2 21:29:30 10° NNW 21:35:06 80° ENE 21:40:38 10° SSE
Timation 1 Rocket 4.2 21:29:40 10° NNW 21:35:34 65° WSW 21:40:49 13° S
USA 234 3.7 21:30:07 10° NE 21:36:29 54° SE 21:40:21 24° SSW
Cosmos 1408 2.7 21:36:56 56° WNW 21:36:56 56° WNW 21:40:26 10° N
STARLINK-1007 4.3 21:36:50 37° SSE 21:37:50 45° SE 21:41:47 10° NE
Cosmos 2322 Rocket 2.8 21:36:55 35° W 21:38:16 40° WNW 21:43:31 10° N
ARIANE 5 R/B 3.2 21:34:47 10° N 21:39:17 35° WNW 21:40:03 33° W
Meteor 1-28 Rocket 3.0 21:39:09 60° SSW 21:39:39 71° W 21:43:24 10° NNW
STARLINK-1237 3.5 21:35:48 10° NW 21:39:56 88° SW 21:44:04 10° SE
SL-8 Rocket 3.9 21:36:12 26° S 21:40:01 83° W 21:46:20 10° N
STARLINK-1010 4.0 21:40:18 40° S 21:41:28 56° SE 21:45:36 10° NE
Cosmos 2150 Rocket 4.4 21:37:54 10° NNW 21:42:41 40° W 21:43:22 38° WSW
STARLINK-1048 4.1 21:41:37 38° S 21:42:47 52° SE 21:46:48 10° NE
Cosmos 2151 2.8 21:42:47 40° SSW 21:44:15 81° W 21:48:32 10° N
STARLINK-1202 3.4 21:40:47 10° NW 21:44:55 78° SW 21:49:02 10° SE
STARLINK-54 3.1 21:44:54 63° SW 21:45:25 89° SE 21:49:00 10° NE
STARLINK-24 3.4 21:45:03 51° SW 21:46:00 90° SSE 21:50:01 10° NE
STARLINK-1049 3.9 21:46:25 38° S 21:47:45 60° SE 21:51:50 10° NE
STARLINK-81 3.3 21:47:20 51° SSW 21:48:12 83° SE 21:51:58 10° NE
Cosmos 2237 4.2 21:46:51 32° SW 21:49:29 65° WNW 21:55:10 10° NNE
STARLINK-77 3.2 21:50:29 48° SW 21:51:27 89° NW 21:55:14 10° NE
Cosmos 1892 4.5 21:52:17 18° WNW 21:52:17 18° WNW 21:54:21 10° NNW
USA 229 DEB 4.4 21:44:42 10° NNW 21:52:06 63° ENE 21:59:42 10° SE
USA 229 4.5 21:44:48 10° NNW 21:52:11 62° ENE 21:59:47 10° SE
STARLINK-1051 3.7 21:51:11 36° SSW 21:52:42 68° SE 21:56:49 10° NE
STARLINK-79 3.1 21:51:58 49° SW 21:52:50 85° NW 21:56:27 10° NE
STARLINK-1246 3.5 21:50:47 10° NW 21:54:51 59° SW 21:58:55 10° SSE
NOSS 3-1 (C) 4.4 21:48:16 10° NNW 21:56:24 76° ENE 22:05:21 10° SSE
STARLINK-78 3.3 21:56:47 40° WSW 21:57:59 73° NW 22:01:46 10° NE
STARLINK-50 3.5 21:57:07 37° WSW 21:58:32 72° NW 22:02:28 10° NE
STARLINK-57 3.4 21:58:30 37° WSW 21:59:46 64° NW 22:03:30 10° NE
STARLINK-1224 3.7 21:55:47 10° NW 21:59:48 52° SW 22:03:49 10° SSE
Cosmos 1315 Rocket 4.2 21:57:29 10° NW 21:59:57 21° WNW 21:59:57 21° WNW
Cosmos 2221 4.0 21:58:47 10° NW 22:01:39 20° W 22:01:39 20° W
STARLINK-1028 3.5 22:00:46 31° SW 22:02:39 88° SE 22:06:48 10° NE
STARLINK-49 3.5 22:01:13 34° WSW 22:02:40 64° NW 22:06:27 10° NE
COSMOS 2428 3.8 21:58:08 10° S 22:03:24 41° ESE 22:08:41 10° NE
STARLINK-27 3.5 22:02:53 33° WSW 22:04:23 61° NW 22:08:09 10° NNE
STARLINK-74 3.5 22:03:05 33° WSW 22:04:33 61° NW 22:08:17 10° NNE
STARLINK-1225 3.8 22:00:50 10° NW 22:04:47 45° SW 22:08:44 10° SSE
BREEZE-M DEB (TANK) 2.7 22:03:01 10° NNW 22:05:14 52° NE 22:09:59 10° SE
Cosmos 2084 Rocket 3.9 22:02:41 10° NW 22:06:55 41° WSW 22:11:07 10° S
STARLINK-1021 3.5 22:05:33 28° SW 22:07:38 81° NW 22:11:46 10° NE
STARLINK-69 3.8 22:06:12 29° WSW 22:07:39 47° NW 22:11:12 10° NNE
STARLINK-31 3.7 22:06:16 30° WSW 22:07:52 54° NW 22:11:34 10° NNE
STARLINK-39 3.7 22:06:30 29° WSW 22:08:10 54° NW 22:11:55 10° NNE
STARLINK-1230 4.0 22:05:51 10° WNW 22:09:44 40° SW 22:13:36 10° SSE
SL-16 R/B 3.9 22:08:16 14° W 22:10:22 17° WNW 22:13:53 10° NNW
Cosmos 1125 Rocket 4.1 22:06:58 10° NW 22:11:39 35° W 22:16:10 11° SSW
STARLINK-21 3.9 22:10:41 25° WSW 22:12:30 47° NW 22:16:11 10° NNE
STARLINK-1019 3.6 22:10:19 25° SW 22:12:35 72° NW 22:16:43 10° NE
STARLINK-76 3.9 22:11:37 25° WSW 22:13:19 44° NW 22:16:50 10° NNE
STARLINK-45 4.1 22:12:01 23° WSW 22:13:51 40° NW 22:17:28 10° NNE
STARLINK-23 3.9 22:12:29 25° WSW 22:14:10 43° NW 22:17:38 10° NNE
STARLINK-70 4.1 22:12:42 23° WSW 22:14:33 41° NW 22:18:08 10° NNE
STARLINK-1243 4.1 22:10:55 10° WNW 22:14:42 35° SW 22:18:28 10° SSE
Cosmos 1538 Rocket 4.0 22:11:43 16° SSW 22:15:57 70° WNW 22:21:19 10° N
STARLINK-32 4.0 22:14:25 23° WSW 22:16:13 40° NW 22:19:42 10° NNE
ERS-2 3.3 22:16:45 21° WSW 22:17:08 22° W 22:20:02 10° NW
PSLV R/B 3.4 22:13:01 10° N 22:17:11 68° WNW 22:20:48 13° SSW
STARLINK-1012 3.7 22:15:06 23° SW 22:17:34 63° NW 22:21:40 10° NE
STARLINK-25 4.1 22:16:44 21° WSW 22:18:36 38° NW 22:22:00 10° NNE
Cosmos 1339 Rocket 4.4 22:13:05 10° NNW 22:19:09 68° W 22:25:16 10° S
STARLINK-1236 4.3 22:15:59 10° WNW 22:19:38 31° SW 22:23:17 10° S
STARLINK-44 4.2 22:18:51 20° W 22:20:51 36° NW 22:24:15 10° NNE
STARLINK-40 4.3 22:19:43 19° WSW 22:21:54 36° NW 22:25:27 10° NNE
CZ-2C R/B 2.5 22:19:06 10° NNE 22:24:18 88° WNW 22:29:28 10° SSW
Okean 3 Rocket 4.5 22:22:01 18° SW 22:24:43 32° W 22:28:48 10° NNW
STARLINK-36 4.4 22:23:35 17° W 22:25:54 33° NW 22:29:20 10° NNE
Cosmos 1408 Rocket 3.5 22:22:13 10° SSW 22:26:31 69° W 22:30:48 10° N
STARLINK-1026 4.1 22:24:42 18° WSW 22:27:34 49° NW 22:31:34 10° NNE
Cosmos 1844 Rocket 4.0 22:26:41 10° N 22:32:00 44° ENE 22:37:16 10° SE
STARLINK-1013 4.2 22:29:27 15° WSW 22:32:31 43° NW 22:36:28 10° NNE
Cosmos 2333 Rocket 2.2 22:29:36 10° SSW 22:35:13 78° WNW 22:40:54 10° NNE
STARLINK-1009 4.4 22:34:14 13° WSW 22:37:31 38° NW 22:41:24 10° NNE
IDEFIX/ARIANE 42P 4.1 22:34:33 10° NNW 22:38:10 19° WNW 22:41:41 10° WSW
PAYLOAD A 4.2 22:34:53 10° N 22:39:25 47° WNW 22:44:04 10° SSW
Cosmos 2360 Rocket 3.5 22:35:46 12° WSW 22:39:38 23° WNW 22:43:59 10° NNW
Cosmos 1825 4.3 22:39:26 10° W 22:40:42 11° WNW 22:42:02 10° WNW
H-2A R/B 3.5 22:38:42 10° SW 22:41:35 18° W 22:44:39 10° NW
Fermi 4.0 22:37:46 10° W 22:41:46 52° S 22:45:43 10° ESE
SAR-Lupe-4 4.0 22:41:30 10° S 22:44:52 41° W 22:48:17 10° NNW
ERBS 4.0 22:43:15 10° W 22:45:05 14° WSW 22:46:56 10° SSW
Cosmos 2322 4.3 22:40:22 10° SW 22:45:41 40° WNW 22:51:03 10° N
Meteor 2-3 Rocket 3.9 22:41:41 10° SSW 22:47:11 55° W 22:52:40 10° N
USA 32 4.0 22:44:09 10° S 22:49:21 77° W 22:54:35 10° N
Cosmos 1821 Rocket 4.1 22:43:32 10° S 22:49:54 73° W 22:56:14 10° N
CZ-4B R/B 3.9 22:47:19 10° NNE 22:50:48 42° E 22:54:11 10° S
ADEOS 3.9 22:47:37 10° N 22:52:39 50° WNW 22:57:39 10° SSW
Cosmos 1515 Rocket 3.6 22:51:14 10° N 22:55:35 86° E 22:59:55 10° S
CZ-4B R/B 1.7 22:52:59 10° S 22:55:50 37° W 22:58:42 10° NNW
Meteor 1-31 Rocket 2.8 22:52:22 10° NNE 22:56:12 89° ESE 23:00:01 10° SSW
Iridium 4 Rocket 3.3 22:51:50 10° S 22:56:22 77° W 23:01:24 10° N
Cosmos 1934 Rocket 4.3 22:51:30 10° S 22:57:35 74° E 23:03:37 10° N
Cosmos 1727 Rocket 4.2 22:53:47 10° NNW 22:59:43 50° W 23:05:37 10° SSW
STARLINK-1035 4.4 22:55:46 10° SSW 22:59:45 49° SE 23:03:45 10° NE
Cosmos 2219 Rocket 2.6 22:55:12 10° SW 23:00:33 47° WNW 23:05:57 10° N
CZ-3A R/B 4.2 22:55:11 10° SW 23:01:32 52° SSE 23:29:56 10° E
CZ-3 R/B 3.1 22:46:32 10° WSW 23:14:56 85° SSE 23:21:40 10° E
